Date,TemperatureHighF,TemperatureAvgF,TemperatureLowF,DewpointHighF,DewpointAvgF,DewpointLowF,HumidityHigh,HumidityAvg,HumidityLow,PressureMaxIn,PressureMinIn,WindSpeedMaxMPH,WindSpeedAvgMPH,GustSpeedMaxMPH,PrecipitationSumIn
2012-3-17,40,40,39,39,38,37,95,94,93,29.88,29.86,4,1,10,0.12
2012-3-18,50,42,36,43,34,30,99,76,56,30.18,29.99,4,0,10,0.44
2012-3-19,53,41,34,38,32,27,90,72,42,30.31,30.14,4,0,10,0.07
2012-3-20,50,46,40,50,45,38,99,97,89,30.41,30.28,1,0,3,0.55
2012-3-21,54,51,49,54,51,49,99,99,99,30.40,29.21,2,0,5,0.09
2012-3-22,58,46,38,49,39,28,99,82,43,29.26,29.17,3,0,8,0.04
2012-3-23,55,44,36,43,38,35,99,82,56,29.29,29.06,4,0,15,0.24
2012-3-24,47,42,34,46,40,34,99,94,82,29.13,29.02,4,0,8,1.23
2012-3-25,56,44,38,52,41,36,99,91,69,29.15,28.99,4,0,9,0.16
2012-3-26,51,44,36,46,42,36,99,94,77,29.29,29.14,6,1,14,0.54
2012-3-27,50,48,46,50,48,46,99,99,99,29.19,29.03,8,2,24,5.95
2012-3-28,65,50,45,57,47,42,99,88,49,29.34,29.11,2,0,8,0.11
2012-3-29,51,49,47,50,49,43,99,98,87,29.34,29.24,4,0,11,0.96
2012-3-30,54,52,51,53,51,50,99,99,99,30.24,29.22,4,0,8,0.77
2012-3-31,57,48,42,56,47,40,99,97,75,30.03,29.64,6,1,19,1.65
2012-4-1,60,47,40,43,39,33,99,77,38,30.35,30.03,4,0,8,0.03
2012-4-2,67,50,40,49,41,38,97,75,41,30.34,30.08,2,0,4,0.00
2012-4-3,57,47,43,49,44,37,99,89,70,30.12,30.01,3,0,8,0.40
2012-4-4,59,46,38,43,38,33,99,78,42,30.25,30.11,4,0,11,0.01
2012-4-5,56,44,37,35,33,30,86,69,40,30.23,30.13,4,0,10,0.00
2012-4-6,62,45,34,37,33,29,89,67,34,30.31,30.19,3,0,8,0.00
2012-4-7,51,41,38,35,30,26,78,64,52,30.19,30.09,1,0,2,0.00
2012-4-8,58,50,46,42,40,30,85,72,39,30.05,30.00,2,0,4,0.01
2012-4-10,51,50,48,50,49,48,99,99,99,29.87,29.81,4,0,11,0.87
2012-4-11,53,49,46,52,48,45,99,98,94,29.90,29.79,6,0,17,0.22
2012-4-12,54,46,42,51,45,42,99,97,77,29.99,29.75,4,1,14,1.38
2012-4-13,55,46,40,51,42,39,99,88,63,29.88,29.71,4,0,11,0.24
2012-4-14,66,50,41,49,43,38,95,78,48,30.16,29.88,4,0,8,0.00
2012-4-15,70,53,44,53,44,32,99,74,31,30.25,30.14,2,0,6,0.00
2012-4-16,66,52,42,51,44,33,93,75,51,30.25,30.19,3,0,5,0.00
2012-4-17,61,52,47,54,50,45,99,92,75,30.21,30.10,3,0,5,0.00
2012-4-18,69,54,44,54,49,42,99,82,54,30.19,30.13,3,0,5,46.25
2012-4-19,76,61,52,61,56,51,99,84,58,30.19,30.12,2,0,6,0.02
2012-4-20,89,68,54,60,51,41,99,61,29,30.14,30.00,3,0,8,0.00
2012-4-21,85,70,59,57,51,42,72,53,35,30.02,29.86,2,0,4,0.00
2012-4-22,72,59,50,52,50,48,99,73,48,29.93,29.85,4,0,8,0.00
2012-4-23,61,53,49,56,52,49,99,95,77,30.01,29.89,4,1,9,0.08
2012-4-24,62,55,51,59,53,51,99,96,83,30.06,29.97,5,0,13,0.50
2012-4-25,58,54,52,58,54,52,99,99,95,30.02,29.78,3,0,8,0.24
2012-4-26,59,51,44,52,47,41,99,86,58,30.26,29.78,4,0,8,0.64
2012-4-27,66,52,41,45,42,39,96,74,44,30.28,30.19,4,0,8,0.00
2012-4-28,70,57,48,52,46,39,87,68,49,30.19,29.94,5,1,10,0.00
2012-4-29,83,59,50,60,50,40,92,73,42,29.96,29.85,4,1,6,0.00
2012-4-30,77,59,47,57,47,35,95,66,44,30.01,29.92,3,0,8,0.00
2012-5-1,67,52,44,47,42,38,98,72,43,29.99,29.90,4,0,8,0.00
2012-5-2,67,51,40,44,38,34,85,64,39,29.98,29.89,3,0,51,0.00
2012-5-3,52,49,45,52,48,40,99,95,79,30.12,29.91,2,0,8,1.24
2012-5-4,62,51,44,47,43,39,99,77,48,30.27,30.11,5,1,9,0.02
2012-5-5,73,57,42,47,42,37,85,60,34,30.25,30.10,4,0,7,0.00
2012-5-6,85,66,53,50,43,35,66,44,25,30.12,30.00,3,0,7,0.00
2012-5-7,90,70,55,56,43,35,66,41,18,30.04,29.96,3,0,6,0.01
2012-5-8,84,66,55,55,47,41,68,52,31,29.96,29.89,2,0,4,0.00
2012-5-9,74,59,50,49,43,38,71,56,39,29.94,29.90,4,1,6,0.00
2012-5-10,86,64,45,51,41,35,76,47,24,29.93,29.83,3,0,6,0.00
2012-5-11,80,64,51,51,43,34,75,48,29,29.98,29.83,2,0,4,0.00
2012-5-12,72,55,45,51,45,39,98,71,44,30.06,29.95,2,0,4,0.00
2012-5-13,61,50,45,52,48,44,99,93,68,30.09,30.01,4,0,9,0.00
2012-5-14,69,56,45,58,48,44,99,79,51,30.09,30.02,2,0,6,0.01
2012-5-15,75,58,45,55,48,43,99,74,45,30.05,29.95,4,0,7,0.00
2012-5-16,79,61,47,56,50,44,99,69,42,30.00,29.90,3,0,108,0.01
2012-5-17,70,54,47,51,45,39,94,73,48,29.94,29.85,4,1,11,0.00
2012-5-18,78,58,46,50,40,33,75,54,33,29.97,29.90,3,0,8,0.00
2012-5-19,79,62,48,49,38,28,62,42,31,30.00,29.91,3,0,7,0.00
2012-5-20,82,64,52,54,45,-100,74,52,33,30.01,29.92,3,0,6,49.07
2012-5-21,74,61,53,57,52,46,99,76,52,30.12,29.99,2,0,6,0.00
2012-5-22,75,59,50,58,50,42,99,76,38,30.14,30.09,3,0,8,0.00
2012-5-23,68,56,48,50,44,40,92,68,44,30.13,29.98,5,1,11,0.00
2012-5-24,65,54,46,48,43,39,84,66,50,29.98,29.78,5,1,12,0.00
2012-5-25,66,52,45,46,43,40,93,73,48,29.85,29.72,4,1,12,0.00
2012-5-26,68,54,47,50,46,45,97,79,50,30.07,29.82,4,0,11,0.00
2012-5-27,75,58,46,53,48,38,97,73,40,30.10,30.05,3,0,5,0.00
2012-5-28,68,55,47,51,47,41,93,75,51,30.08,30.01,4,0,9,0.00
2012-5-29,77,57,44,54,47,42,95,72,43,30.07,29.97,3,0,7,0.00
2012-5-30,84,62,49,56,49,44,88,64,37,30.06,30.00,2,0,5,0.00
2012-5-31,86,67,53,60,50,44,81,57,37,30.02,29.85,2,0,4,0.00
2012-6-1,87,69,58,60,53,49,89,60,38,29.87,29.78,3,0,8,0.00
2012-6-2,80,63,51,59,53,48,99,72,42,29.96,29.84,3,0,11,0.00
2012-6-3,79,61,49,57,50,43,99,71,36,29.96,29.87,3,0,6,0.00
2012-6-4,60,52,48,54,51,46,99,94,70,30.10,29.84,3,0,9,0.25
2012-6-5,66,53,45,48,44,39,99,74,46,30.20,30.09,4,0,8,0.02
2012-6-6,70,56,45,47,41,36,85,60,38,30.17,29.98,3,0,6,0.00
2012-6-7,77,60,48,56,48,38,85,64,43,30.01,29.96,3,0,7,0.00
2012-6-8,69,56,48,47,43,38,84,64,39,30.01,29.96,5,1,13,0.00
2012-6-9,73,59,46,49,43,36,77,57,41,30.00,29.93,4,1,8,0.00
2012-6-10,89,72,57,51,44,34,54,38,24,29.93,29.83,3,0,5,0.00
2012-6-11,87,69,60,53,46,41,59,46,30,29.98,29.87,3,0,8,0.00
2012-6-12,82,65,51,59,52,45,98,65,45,29.99,29.93,4,1,8,0.00
2012-6-13,80,64,52,56,50,43,97,63,37,29.93,29.75,3,0,6,0.00
2012-6-14,79,63,53,50,44,35,70,51,32,29.82,29.75,3,1,9,0.00
2012-6-15,84,67,52,53,47,40,67,51,32,29.80,29.74,3,0,11,0.00
2012-6-16,102,78,62,65,56,49,74,48,24,29.83,29.74,2,0,4,0.00
2012-6-17,74,62,49,56,51,46,94,68,48,29.89,29.75,3,0,7,0.00
2012-6-18,82,61,47,56,48,42,99,67,33,29.87,29.77,4,0,7,0.00
2012-6-19,80,63,48,54,46,40,88,58,33,29.87,29.78,2,0,5,0.00
2012-6-20,90,68,53,59,48,40,74,50,28,29.83,29.76,3,1,5,0.00
2012-6-21,69,56,47,52,48,44,93,75,52,29.94,29.75,3,1,8,0.00
2012-6-22,55,52,47,55,51,44,99,97,90,29.93,29.88,2,0,8,0.38
2012-7-9,84,66,54,60,54,49,88,66,44,29.96,29.92,4,1,9,0.01
2012-7-10,93,69,52,63,55,49,91,65,35,29.92,29.78,2,0,4,0.00
2012-7-11,94,83,71,66,59,54,57,45,38,29.83,29.75,2,0,3,0.01
2012-7-12,86,73,57,61,54,44,75,54,41,29.84,29.76,3,1,5,0.01
2012-7-13,78,60,50,57,51,44,99,75,47,29.85,29.79,3,1,7,0.00
2012-7-14,76,58,50,58,52,49,99,83,53,29.91,29.82,2,0,5,0.00
2012-7-15,69,56,48,55,49,46,99,81,52,29.88,29.80,2,0,4,0.00
2012-7-16,62,53,47,54,51,47,99,92,72,29.87,29.77,2,0,4,0.01
2012-7-17,62,56,53,58,54,52,99,93,76,29.97,29.85,2,0,6,0.13
2012-7-18,73,59,52,59,54,52,99,86,56,29.97,29.92,3,0,5,0.00
2012-7-19,66,56,51,60,55,50,99,96,76,30.03,29.92,2,0,6,0.02
2012-7-20,87,66,51,65,55,50,99,73,45,30.04,29.96,4,0,5,0.00
2012-7-21,90,72,61,65,55,48,79,59,39,29.96,29.85,3,0,8,0.00
2012-7-22,87,70,56,62,55,51,89,62,39,29.86,29.78,3,1,4,0.00
2012-7-23,66,56,50,55,51,47,99,86,64,29.91,29.82,3,0,6,0.00
2012-7-24,67,55,51,57,53,51,99,92,67,29.94,29.89,3,0,7,0.00
2012-7-25,55,51,50,55,51,50,99,99,99,29.96,29.91,1,0,3,0.03
2012-8-7,58,57,57,49,49,48,73,73,72,29.97,29.96,1,0,2,0.00
2012-8-8,96,71,54,62,51,46,84,54,28,29.96,29.86,2,0,5,0.00
2012-8-9,96,73,56,64,54,46,79,54,34,29.90,29.80,2,1,5,0.00
2012-8-10,98,75,59,62,51,43,64,45,29,29.82,29.69,2,0,5,0.00
2012-8-11,80,64,52,56,51,46,87,65,41,29.77,29.69,2,0,4,0.00
2012-8-12,75,58,44,55,49,42,99,76,43,29.79,29.75,2,0,4,0.00
2012-8-13,79,64,50,58,53,47,91,69,42,29.79,29.73,2,0,4,0.00
2012-8-14,72,59,52,55,52,49,97,78,53,29.79,29.73,2,0,6,0.00
2012-8-15,62,55,51,58,53,50,99,94,79,29.87,29.75,2,0,5,0.00
2012-8-16,76,58,50,61,54,50,99,86,52,29.90,29.85,2,0,6,0.00
2012-8-17,82,63,48,61,53,46,99,74,46,29.91,29.85,2,0,4,0.00
2012-8-18,90,68,56,62,52,45,81,59,37,29.89,29.84,2,1,5,0.00
2012-8-19,85,64,53,61,52,48,88,67,39,29.89,29.83,3,1,6,0.00
2012-8-20,86,64,52,60,51,45,95,66,32,29.87,29.78,4,1,6,0.00
2012-8-21,87,64,53,60,53,48,96,72,39,29.84,29.80,3,0,6,0.00
2012-8-22,76,59,51,57,52,50,99,81,50,29.86,29.80,2,0,4,0.00
2012-8-23,71,57,47,55,51,46,99,83,53,29.88,29.78,2,0,4,0.00
2012-8-24,73,54,45,56,49,44,99,83,50,29.84,29.79,2,0,4,0.00
2012-8-25,70,54,45,57,50,45,99,89,56,29.81,29.73,3,0,6,0.00
2012-8-26,76,60,50,56,52,49,99,78,47,29.95,29.77,3,0,8,0.00
2012-8-27,86,66,54,63,55,48,99,72,42,29.98,29.91,3,0,5,0.00
2012-8-28,87,66,57,60,49,45,71,56,34,29.97,29.92,4,0,8,0.00
2012-8-29,94,69,54,61,50,40,82,53,29,29.92,29.74,2,0,4,0.00
2012-8-30,80,63,51,55,50,39,99,65,41,29.76,29.70,3,0,5,0.00
2012-8-31,70,55,50,56,52,48,99,89,59,29.88,29.75,4,0,9,0.00
2012-9-1,72,58,50,56,52,49,99,83,52,29.95,29.87,2,0,5,0.00
2012-9-2,80,64,52,59,53,50,96,70,45,29.92,29.84,1,0,3,0.00
2012-9-3,82,65,51,58,51,45,90,63,42,29.91,29.84,2,0,4,0.00
2012-9-4,75,56,46,55,50,43,99,81,47,29.96,29.89,2,0,4,0.00
2012-9-5,71,53,48,57,50,47,99,92,58,29.94,29.87,2,0,4,0.00
2012-9-6,67,52,47,56,49,47,99,91,59,29.98,29.88,3,0,6,0.00
2012-9-7,75,56,46,56,49,46,99,82,48,30.02,29.96,2,0,4,0.00
2012-9-8,80,58,49,59,51,46,99,78,44,29.99,29.90,3,1,6,0.00
2012-9-9,81,61,50,56,50,46,90,72,40,29.92,29.85,3,0,7,0.00
2012-9-10,86,64,52,58,51,48,88,66,37,29.86,29.76,4,0,5,0.00
2012-9-11,78,60,52,56,51,48,99,75,45,29.90,29.74,2,0,4,0.00
2012-9-12,72,55,49,58,52,47,99,91,57,30.01,29.88,4,0,6,0.00
2012-9-13,75,56,47,58,52,47,99,88,51,30.03,29.97,2,0,4,0.00
2012-9-14,71,56,49,58,52,48,99,89,60,30.03,29.95,2,0,4,0.00
2012-9-15,77,57,44,60,50,43,99,79,48,30.01,29.93,2,0,4,0.00
2012-9-16,71,53,44,54,48,42,99,83,52,29.97,29.92,2,0,4,0.00
2012-9-17,59,50,46,54,48,45,99,96,79,30.01,29.93,2,0,6,0.00
2012-9-18,77,56,47,59,50,47,99,84,48,30.04,29.95,2,0,6,0.00
2012-9-19,80,57,48,60,51,47,99,82,47,30.01,29.96,3,1,6,0.00
2012-9-20,80,58,48,58,48,42,96,72,46,30.00,29.92,4,0,8,0.00
2012-9-21,88,61,50,56,47,37,92,63,31,29.95,29.82,3,0,5,0.00
2012-9-22,90,66,53,60,47,37,68,50,35,29.87,29.79,0,0,0,0.00
2012-9-23,84,61,52,55,48,42,89,64,37,29.89,29.82,0,0,0,0.00
2012-9-24,75,59,47,57,50,46,99,76,49,29.90,29.80,0,0,0,0.00
2012-9-25,72,60,51,57,50,46,90,71,51,29.86,29.76,0,0,1,0.00
2012-9-26,63,56,46,54,50,44,94,82,70,29.81,29.76,0,0,0,0.00
2012-9-27,89,62,46,62,52,44,99,74,37,29.85,29.77,0,0,0,0.00
2012-9-28,69,53,46,55,49,44,99,86,57,29.89,29.79,0,0,55,50.01
2012-9-29,80,58,44,66,48,37,99,74,36,29.96,29.88,0,0,1,0.00
2012-9-30,95,69,56,61,47,36,62,46,26,29.98,29.91,0,0,0,0.00
2012-10-1,101,77,65,59,41,28,43,28,17,29.91,29.83,0,0,0,0.00
2012-10-2,109,83,74,64,44,30,34,26,18,29.84,29.72,0,0,0,0.00
2012-10-3,88,69,54,56,46,34,99,51,24,29.93,29.73,0,0,1,0.00
2012-10-4,65,56,53,58,54,52,99,94,77,30.07,29.92,3,0,7,0.00
2012-10-5,72,57,51,60,55,51,99,92,65,30.08,30.00,2,0,4,0.00
2012-10-6,75,57,51,60,53,51,99,87,56,30.02,29.91,2,0,5,0.00
2012-10-7,78,57,49,65,51,47,99,83,50,29.94,29.86,2,0,4,0.00
2012-10-8,74,56,48,59,51,47,99,85,50,29.97,29.90,2,0,4,0.00
2012-10-9,74,57,50,60,52,48,99,85,53,29.95,29.86,2,0,4,0.00
2012-10-10,80,56,48,60,51,45,99,83,48,29.89,29.77,2,0,4,0.00
2012-10-11,70,53,48,57,50,48,99,91,59,29.89,29.72,2,0,6,0.00
2012-10-12,58,53,49,53,50,48,99,90,79,30.16,29.86,1,0,3,0.00
2012-10-13,79,59,51,62,56,51,99,90,54,30.21,30.11,2,0,4,0.00
2012-10-14,86,63,53,72,58,53,99,88,51,30.12,30.00,3,0,7,0.00
2012-10-15,90,65,54,66,60,53,99,85,43,30.01,29.92,3,0,8,0.00
2012-10-16,86,67,59,73,60,47,99,81,56,29.96,29.85,3,0,6,0.00
2012-10-17,99,70,57,60,45,36,74,43,25,29.86,29.73,2,0,4,0.00
2012-10-18,98,70,57,59,42,28,99,42,18,29.95,29.79,3,0,7,0.00
2012-10-19,66,57,53,62,56,49,99,94,80,29.97,29.85,2,0,4,0.00
2012-10-20,75,58,49,60,50,36,99,77,49,29.86,29.75,4,0,8,0.00
2012-10-21,72,53,46,49,39,31,95,60,33,29.82,29.71,2,0,5,0.00
2012-10-22,68,51,44,59,49,44,99,95,60,29.81,29.59,4,0,8,0.62
2012-10-23,59,49,42,55,47,42,99,94,72,29.97,29.80,3,0,7,0.89
2012-10-24,61,51,45,58,50,45,99,97,84,30.11,29.91,2,0,7,0.26
2012-10-25,74,55,48,63,50,42,99,84,54,30.20,30.09,2,0,5,0.05
2012-10-26,81,59,49,58,50,40,96,75,40,30.19,30.03,2,0,6,0.00
2012-10-27,86,65,58,64,57,55,98,78,47,30.03,29.89,2,0,6,0.00
2012-10-28,88,63,56,71,58,55,99,87,46,29.95,29.85,3,0,6,0.00
2012-10-29,86,61,54,68,57,54,99,89,47,30.01,29.94,2,0,4,0.00
2012-10-30,75,58,51,68,56,51,99,94,63,29.97,29.88,2,0,4,0.03
2012-10-31,56,55,53,56,54,53,99,99,99,29.91,29.83,3,0,108,53.26
2012-11-1,74,56,48,71,55,48,99,95,72,29.99,29.89,2,0,4,0.19
2012-11-2,72,53,46,57,50,46,99,91,54,30.00,29.93,2,0,4,0.03
2012-11-3,81,59,52,61,54,50,99,88,48,30.08,29.98,1,0,4,0.01
2012-11-4,89,65,56,67,59,55,99,83,44,30.12,30.04,0,0,1,0.00
2012-11-5,93,68,61,67,59,55,92,75,38,30.05,29.96,0,0,0,0.00
2012-11-6,90,66,55,65,56,52,90,73,37,29.98,29.92,0,0,1,0.00
2012-11-7,79,55,49,61,52,46,99,88,53,29.96,29.83,2,0,4,0.00
2012-11-8,55,46,39,53,42,38,99,88,68,29.84,29.78,4,0,8,0.77
2012-11-9,59,43,37,55,41,36,99,93,64,29.91,29.80,2,0,7,0.05
2012-11-10,61,45,39,44,40,35,99,83,51,30.16,29.90,2,0,6,0.05
2012-11-11,67,46,38,47,39,36,94,80,47,30.30,30.15,2,0,4,0.00
2012-11-12,72,50,42,46,40,38,86,71,35,30.30,30.18,1,0,4,0.00
2012-11-16,54,54,53,54,53,53,99,99,99,29.78,29.71,1,0,4,3.65
2012-11-17,62,53,44,61,52,43,99,99,99,29.92,29.64,4,0,12,3.88
2012-11-18,56,48,40,55,47,40,99,98,82,30.05,29.92,2,0,7,0.31
2012-11-19,55,53,50,55,53,50,99,99,99,30.08,30.01,5,1,15,0.50
2012-11-20,57,56,54,56,55,53,99,99,99,30.02,29.84,7,1,14,5.24
2012-11-21,65,52,44,64,50,42,99,93,74,30.12,29.92,2,0,7,0.13
2012-11-22,75,50,42,56,45,41,99,86,46,30.13,30.05,1,0,2,0.00
2012-11-23,85,53,45,57,45,39,92,76,36,30.12,30.03,2,0,3,0.00
2012-11-24,84,55,48,61,50,41,99,83,42,30.08,29.94,2,0,5,0.00
2012-11-25,79,54,33,69,52,32,99,93,57,30.08,29.81,1,0,3,68.45
2012-11-26,74,51,46,62,49,46,99,94,56,29.96,29.86,2,0,3,0.00
2012-11-27,55,52,49,52,50,48,99,91,81,29.97,29.82,4,0,11,0.00
2012-11-28,55,53,51,55,53,49,99,97,82,29.87,29.62,6,0,14,3.71
2012-11-29,57,55,54,57,55,54,99,99,99,29.87,29.64,7,2,20,4.82
2012-11-30,57,55,53,57,55,53,99,99,99,29.85,29.63,4,0,13,0.33
2012-12-1,58,55,54,58,55,53,99,99,99,29.88,29.64,6,1,14,1.55
2012-12-2,61,51,43,60,51,43,99,98,87,30.03,29.50,5,0,13,1.24
2012-12-3,68,49,42,56,47,42,99,92,58,30.09,30.00,2,0,4,0.01
2012-12-4,54,52,50,54,51,49,99,99,96,30.10,30.00,3,0,7,2.28
2012-12-5,59,55,47,59,55,47,99,99,99,30.06,29.98,2,0,4,0.25
2012-12-6,66,48,42,60,46,42,99,95,67,30.07,29.99,2,0,4,0.01
2012-12-7,69,47,40,51,42,38,99,86,50,30.06,29.96,2,0,4,0.00
2012-12-8,73,48,40,56,42,38,97,80,46,30.01,29.93,2,0,4,0.00
2012-12-9,75,53,45,54,45,37,92,76,45,30.09,29.98,2,0,3,0.00
2012-12-10,82,56,49,59,50,45,99,82,42,30.13,29.99,1,0,3,0.00
2012-12-11,52,47,43,52,47,43,99,98,95,29.99,29.71,2,0,4,0.36
2012-12-12,58,44,39,53,42,38,99,93,67,29.81,29.70,2,0,5,0.17
2012-12-13,65,42,35,46,38,35,99,86,48,29.85,29.74,1,0,4,0.00
2012-12-14,61,43,37,48,40,37,99,89,58,29.93,29.68,2,0,4,0.00
2012-12-15,45,41,36,44,41,36,99,98,91,29.94,29.81,2,0,4,0.26
2012-12-16,53,47,42,53,47,42,99,99,99,29.97,29.85,4,0,10,0.68
2012-12-17,62,48,40,58,46,35,99,94,78,29.96,29.82,2,0,5,0.27
2012-12-18,54,41,36,39,34,30,88,76,53,30.11,29.90,4,0,11,0.02
2012-12-19,60,42,33,42,34,28,86,73,48,30.19,30.04,3,0,8,0.00
2012-12-20,50,46,40,50,45,35,99,98,76,30.05,29.76,8,1,18,2.59
2012-12-21,52,50,47,52,49,46,99,99,99,29.77,29.64,8,0,15,1.41
2012-12-22,58,46,41,58,45,41,99,99,91,29.91,29.64,4,0,11,0.53
2012-12-23,56,48,42,55,48,42,99,99,99,29.92,29.66,6,0,22,1.63
2012-12-24,63,45,39,58,43,39,99,95,64,30.10,29.92,1,0,3,0.01
2012-12-25,46,44,42,45,43,42,99,99,99,30.03,29.66,3,0,6,0.65
2012-12-26,52,44,40,51,44,40,99,99,92,30.03,29.73,4,0,9,0.38
2012-12-27,61,44,40,48,42,39,99,93,59,30.07,29.99,22,0,22,0.44
2012-12-28,44,41,39,44,41,39,99,99,96,30.06,29.91,2,0,5,0.20
2012-12-29,64,44,39,53,41,39,99,90,53,29.99,29.89,2,0,4,0.05
2012-12-30,65,42,37,48,39,36,99,92,51,30.03,29.91,2,0,3,0.05
2013-1-1,68,46,38,51,40,37,99,81,42,30.15,30.07,2,0,4,0.01